Washington Executive (W32)
Clinton, MD
Field Elevation: 249
Lat: 38°44.89N  Long: 76°55.97W
CTAF/Unicom Freq: 122.8000
   
    
Weather Advisories
9/3/2014 04:30 Z
Altimeter 29.95" Hg
Wind 302° @ 0 KT
Gusts 0 KT
Temperature 23° C (73° F)
Dewpoint 22° C (72° F)
Relative Humidity 90%
Density Altitude 1,354 feet
Condensation Altitude 1,099 feet
  Wind and Runways
Indicated Runway = 23
History
 
 
More Info
All DigiWx sites map
Weather Radar
NOAA Forecast
 
Airport IQ 5010
(HMIEM) Shock Trauma Ctr
(26N) Ocean City
 
about DigiWx
 
FAA Disclaimer: The data displayed is for advisory purposes only and is not to be used for flight planning or operations. For official data, please call (not available) to hear the current automated AWOS voice message.
  METAR W32 030430Z AUTO 30000KT 23/22 A2995